Location: Ahausen
(50.4985°N, 8.2722°E)
Time: 06:59:57
(UTC+00:00)

DOVE 4 - Visible Passes

Search period start: 25 June 2022 00:00
Search period end: 05 July 2022 00:00
Orbit: 586 x 798 km, 97.8° (Epoch: 24 June)

Date Brightness Start Highest point End Pass type
(mag) Time Alt. Az. Time Alt. Az. Time Alt. Az.
25 Jun ? 00:18:50 10° N 00:22:56 30° WNW 00:26:40 13° WSW visible
25 Jun ? 21:44:25 10° NE 21:47:05 15° E 21:49:28 11° ESE visible
25 Jun ? 23:20:26 10° NNE 23:25:15 87° WNW 23:28:09 26° SSW visible
26 Jun ? 00:59:25 10° NNW 01:02:14 16° WNW 01:05:05 10° W visible
26 Jun ? 22:22:51 10° NNE 22:27:09 31° E 22:29:37 21° SE visible
27 Jun ? 00:00:19 10° N 00:04:49 41° WNW 00:08:18 17° SW visible
27 Jun ? 21:28:16 10° E 21:28:37 10° E 21:28:58 10° E visible
27 Jun ? 23:02:10 10° NNE 23:07:00 67° ESE 23:09:46 27° S visible
28 Jun ? 00:40:36 10° NNW 00:44:12 21° WNW 00:47:56 10° WSW visible
28 Jun ? 22:04:55 10° NE 22:08:47 23° E 22:11:14 16° SE visible
28 Jun ? 23:41:53 10° N 23:46:40 58° WNW 23:49:55 21° SW visible
29 Jun ? 01:21:59 10° NW 01:23:22 11° NW 01:24:45 10° WNW visible
29 Jun ? 22:43:59 10° NNE 22:48:44 48° E 22:51:22 25° SSE visible
30 Jun ? 00:21:57 10° N 00:26:08 29° WNW 00:30:03 12° WSW visible
30 Jun ? 21:47:14 10° NE 21:50:22 16° E 21:52:49 12° ESE visible
30 Jun ? 23:23:32 10° NNE 23:28:28 81° WNW 23:31:30 25° SSW visible
01 Jul ? 01:02:35 10° NNW 01:05:23 15° NW 01:08:15 10° W visible
01 Jul ? 22:25:52 10° NNE 22:30:24 34° E 22:32:57 22° SE visible
02 Jul ? 00:03:26 10° N 00:08:01 39° WNW 00:11:37 16° SW visible
02 Jul ? 21:30:08 10° ENE 21:31:53 12° E 21:33:38 10° ESE visible
02 Jul ? 23:05:14 10° NNE 23:10:14 73° ESE 23:13:04 27° S visible
03 Jul ? 00:43:43 10° NNW 00:47:21 21° WNW 00:51:05 10° WSW visible
03 Jul ? 22:07:52 10° NE 22:12:01 25° E 22:14:30 18° SE visible
03 Jul ? 23:44:58 10° N 23:49:51 55° WNW 23:53:11 21° SW visible
04 Jul ? 01:25:11 10° NW 01:26:27 11° NW 01:27:45 10° WNW visible
04 Jul ? 22:47:00 10° NNE 22:51:56 52° E 22:54:36 27° SSE visible
